Regional Weather Roundup
Issued by NWS Northern Indiana

Home | Current Version | Previous Version | Graphics & Text | Print | Product List | Glossary On
Versions: 1 2 3 4 5 6 7 8 9 10 11 12 13 14 15 16 17 18 19 20 21 22 23 24 25 26 27 28 29 30 31 32 33 34 35 36 37 38 39 40 41 42 43 44 45 46 47 48 49 50
000
ASUS43 KIWX 260900
RWRIWX

KIWX WEATHER ROUNDUP
NATIONAL WEATHER SERVICE NORTHERN INDIANA
500 AM EDT SAT JUL 26 2014

NOTE: "FAIR" INDICATES FEW OR NO CLOUDS BELOW 12,000 FEET WITH NO
SIGNIFICANT WEATHER AND/OR OBSTRUCTIONS TO VISIBILITY.

* THESE STATIONS ARE NOT UNDER NWS QUALITY CONTROL. THEY ALSO MAY NOT
  REPORT WEATHER SUCH AS PRECIPITATION OR FOG.

INZ001>027-261000-
NORTHERN INDIANA

CITY           SKY/WX    TMP DP  RH WIND       PRES   REMARKS
GARY*          CLEAR     69  60  72 CALM      29.88F
VALPARAISO     CLEAR     63  59  87 CALM      29.89F
SOUTH BEND     CLOUDY    65  58  78 S6        29.91F
GOSHEN         CLOUDY    64  59  83 SE5       29.91F
WARSAW*        PTCLDY    61  59  94 CALM      29.92S
ANGOLA*        CLEAR     57  55  94 CALM      29.93F
FORT WAYNE     MOCLDY    61  58  90 SE5       29.93F
PERU/GRISSOM   CLOUDY    67  64  88 SW8       29.92F

$$
INZ028>050-261000-
CENTRAL INDIANA

CITY           SKY/WX    TMP DP  RH WIND       PRES   REMARKS
LAFAYETTE      CLOUDY    68  60  75 CALM      29.91F
KOKOMO*        CLOUDY    68  59  73 SW9G16    29.93S
MUNCIE*        CLOUDY    68  60  75 S8        29.94F
INDIANAPOLIS   CLOUDY    68  60  75 S8        29.93F

$$
MIZ043>046-050>051-056>058-064>065-071>073-077>080-261000-
SOUTHWEST LOWER MICHIGAN

CITY           SKY/WX    TMP DP  RH WIND       PRES   REMARKS
BATTLE CREEK   CLEAR     62  57  83 S6        29.92F
BENTON HARBOR  PTCLDY    59  57  93 SE5       29.89F
COLDWATER*     CLEAR     60  58  91 CALM      29.92F
HILLSDALE*     CLEAR     58  58  99 CALM      29.93F
HOLLAND        PTCLDY    62  58  86 CALM      29.90S
GRAND RAPIDS   CLEAR     62  58  86 S5        29.90F
KALAMAZOO      CLEAR     62  58  86 S5        29.91F
STURGIS*       CLEAR     59  57  94 S3        29.91F
THREE RIVERS*  FAIR      60  58  94 S3        29.91F

$$
OHZ001>008-015>018-024>025-261000-
NORTHWEST OHIO

CITY           SKY/WX    TMP DP  RH WIND       PRES   REMARKS
DEFIANCE       CLEAR     60  56  86 CALM      29.94S
FINDLAY        CLEAR     60  56  86 S6        29.95S
TOLEDO EXPRESS CLEAR     59  56  89 CALM      29.94F
TOLEDO METCALF CLEAR     61  56  83 S5        29.95F
LIMA           CLEAR     63  56  78 S6        29.96F

$$
&&



USA.gov is the U.S. government's official web portal to all federal, state and local government web resources and services.